Regional Weather Roundup
Issued by NWS

Home | Current Version | Previous Version | Text Only | Print | Product List | Glossary Off
Versions: 1 2 3 4 5 6 7 8 9 10 11 12 13 14 15 16 17 18 19 20 21 22 23 24 25 26 27 28 29 30 31 32 33 34 35 36 37 38 39 40 41 42 43 44 45 46 47 48 49 50

000
ASUS45 KBOI 272210
RWRID

IDAHO REGIONAL WEATHER ROUNDUP
NATIONAL WEATHER SERVICE BOISE ID
400 PM MDT MON JUL 27 2015

NOTE: "FAIR" INDICATES FEW OR NO CLOUDS BELOW 12000 FEET
WITH NO SIGNIFICANT WEATHER AND/OR OBSTRUCTIONS TO VISIBILITY

IDZ012-014-272300-
SOUTHWEST IDAHO


CITY           SKY/WX    TMP DP  RH WIND       PRES   REMARKS
BOISE          MOSUNNY   73  32  22 NW17G30   30.05R
CALDWELL       SUNNY     75  34  22 NW17G26   30.06S
MOUNTAIN HOME  SUNNY     74  34  22 NW21G31   30.04S
$$

IDZ016-017-272300-
SOUTHCENTRAL IDAHO


CITY           SKY/WX    TMP DP  RH WIND       PRES   REMARKS
BURLEY         LGT RAIN  68  37  32 W24G35    30.04S
JEROME         SUNNY     69  33  26 W29G37    30.06R
TWIN FALLS     SUNNY     72  34  24 W23G31    30.04R
$$

IDZ019>023-272300-
SOUTHEAST IDAHO


CITY           SKY/WX    TMP DP  RH WIND       PRES   REMARKS
IDAHO FALLS    MOSUNNY   66  44  45 SW24G30   30.00F
POCATELLO      MOSUNNY   68  42  38 W28G35    30.04S
REXBURG        PTSUNNY   58  46  64 S15G22    30.02F
$$

IDZ006-010-011-018-031-032-272300-
CENTRAL IDAHO MOUNTAINS


CITY           SKY/WX    TMP DP  RH WIND       PRES   REMARKS
MCCALL         PTSUNNY   61  34  36 NW13G24   30.07R
HAILEY         MOSUNNY   64  36  34 NW12      30.02R
STANLEY          N/A     57  33  40 W15G25    30.12S
SALMON         CLOUDY    54  43  66 NW3       30.07S
CHALLIS        CLOUDY    55  40  56 CALM      30.08R
$$

IDZ002-004-006-007-026-272300-
NORTHERN IDAHO


CITY           SKY/WX    TMP DP  RH WIND       PRES   REMARKS
LEWISTON       PTSUNNY   70  42  36 NW15      30.05R
LOWELL           N/A     61  55  81 CALM      30.07R
COEUR D`ALENE  CLOUDY    63  46  55 NW10G20   30.01R THUNDER
MULLAN PASS    LGT RAIN  40  38  93 N8G21     30.10R WCI  34
$$



USA.gov is the U.S. government's official web portal to all federal, state and local government web resources and services.